Location: Siloam Springs
(36.1881°N, 94.5403°W)
Time: 05:16:45
(UTC-05:00)

CUBESAT XI-V - Pass Details

Date: 02 June 2024
Orbit: 657 x 679 km, 98.2° (Epoch: 16 June)

Event Time Altitude Azimuth Distance (km) Brightness Sun altitude
Exits shadow 02:36:26 21° 94° (E) 1,468 ? -28.6°
Maximum altitude 02:37:44 24° 69° (ENE) 1,358 ? -28.5°
Drops below altitude 10° 02:41:20 10° 16° (NNE) 2,075 ? -28.2°
Sets 02:43:53 0° 3° (N) 2,992 ? -28.0°
